Regional Weather Roundup
Issued by NWS

Home | Current Version | Previous Version | Text Only | Print | Product List | Glossary Off
Versions: 1 2 3 4 5 6 7 8 9 10 11 12 13 14 15 16 17 18 19 20 21 22 23 24 25 26 27 28 29 30 31 32 33 34 35 36 37 38 39 40 41 42 43 44 45 46 47 48 49 50

000
ASUS43 KMPX 221901
RWRMN
WEATHER ROUNDUP FOR MINNESOTA
NATIONAL WEATHER SERVICE TWIN CITIES/CHANHASSEN MN
100 PM CST WED NOV 22 2017


NOTE: "FAIR" INDICATES FEW OR NO CLOUDS BELOW 12,000 FEET WITH NO
SIGNIFICANT WEATHER AND/OR OBSTRUCTIONS TO VISIBILITY. N/A MEANS
CURRENT SKY AND/OR WEATHER CONDITIONS ARE NOT AVAILABLE.

MNZ060>063-068>070-222000-
   Twin Cities Metro

CITY           SKY/WX    TMP DP  RH WIND       PRES   REMARKS
TWIN CITIES    CLOUDY    24  13  62 S8        30.19F WCI  15
ST PAUL        CLOUDY    24  14  65 S8        30.21F WCI  15
CRYSTAL        CLOUDY    23  11  60 S9        30.17F WCI  13
BLAINE         CLOUDY    25  12  58 S9        30.18F WCI  15
LAKEVILLE      CLOUDY    25  14  63 S6        30.19F WCI  18
EDEN PRAIRIE   CLOUDY    26  13  57 S9        30.17F WCI  17
SOUTH ST PAUL  MOSUNNY   26  13  60 S9        30.20F WCI  16
LAKE ELMO      FAIR      25  16  68 S8        30.20F WCI  16
$$
MNZ001>005-007-008-013>017-022>024-027-028-222000-
   Northwest Minnesota

CITY           SKY/WX    TMP DP  RH WIND       PRES   REMARKS
BEMIDJI        LGT SNOW  17  14  86 S8        30.02F WCI   7
HALLOCK        LGT SNOW  19  18  93 S17       29.95F WCI   4
ROSEAU         CLOUDY    19  14  79 S13       29.97F WCI   7
WARROAD        FLURRIES  18  14  86 S8        29.99F WCI   7
THIEF RVR FALL LGT SNOW  19  16  86 S15       29.99F WCI   5
CROOKSTON      LGT SNOW  21  18  86 S15       29.98F WCI   8
FOSSTON        FLURRIES  19  12  73 S15       29.99F WCI   5
DETROIT LAKES  CLOUDY    27  14  59 SE15      29.99F WCI  15
MOORHEAD       CLOUDY    27  12  54 S18       29.99F WCI  13
PARK RAPIDS    LGT SNOW  19  14  81 S13       30.02F WCI   6
MAHNOMEN       CLOUDY    22  13  70 S12G17    29.99F WCI  10
$$
MNZ006-009>011-018-025>026-222000-
   North Central Minnesota

CITY           SKY/WX    TMP DP  RH WIND       PRES   REMARKS
BAUDETTE       LGT SNOW  16  12  84 S8        30.00F FOG     WCI   5
FLAG ISLAND    MIX PCPN  18  12  79 S13       29.97F WCI   4
INTL FALLS     LGT SNOW  17  11  77 SW8       30.05F WCI   7
WASKISH        LGT SNOW  18  14  86 S6        30.03F WCI   9
BIG FORK       LGT SNOW  19  14  79 S7        30.05F WCI  10
LONGVILLE      LGT SNOW  19  14  79 S7        30.07F WCI  10
GRAND RAPIDS   LGT SNOW  20  14  77 S10       30.08F WCI   9
CRANE LAKE     CLOUDY    18  10  73 S5        30.09F WCI  11
ORR            CLOUDY    18  10  73 S6        30.04F WCI   9
COOK           CLOUDY    18  10  73 S9        30.07F WCI   6
WALKER         LGT SNOW  18  14  84 S8        30.04F VSB 1   WCI   7
$$
MNZ012-019>021-037-222000-
   Northeast Minnesota

CITY           SKY/WX    TMP DP  RH WIND       PRES   REMARKS
DULUTH         PTSUNNY   20  13  74 SW12      30.10F WCI   8
ELY            CLOUDY    18  10  73 SW8       30.07F WCI   7
HIBBING        CLOUDY    19  11  70 S7        30.07F WCI  10
EVELETH        CLOUDY    18   9  68 S9        30.09F WCI   6
DULUTH HARBOR  CLOUDY    25  14  63 SW10      30.16F WCI  15
TWO HARBORS    CLOUDY    25  16  68 SW9       30.10F WCI  15
SILVER BAY     CLOUDY    21  12  68 SW8       30.10F WCI  12
GRAND MARAIS     N/A     25  17  72 SW14G20   30.12F WCI  13
G MARAIS ARPRT CLOUDY    18   7  62 SW7       30.04F WCI   8
$$
MNZ029>031-032-039>041-046>048-054>057-064-222000-
   West Central Minnesota

CITY           SKY/WX    TMP DP  RH WIND       PRES   REMARKS
FERGUS FALLS   CLOUDY    27  14  59 S20       30.04F WCI  13
WHEATON        CLOUDY    28  14  54 SE16      30.02F WCI  17
MORRIS         CLOUDY    27  12  54 S17       30.04F WCI  14
ALEXANDRIA     CLOUDY    25  13  60 S17       30.07F WCI  12
ELBOW LAKE     CLOUDY    26  13  58 S21       30.03F HAZE    WCI  12
WADENA         MOSUNNY   21  12  68 S12       30.04F WCI   9
GLENWOOD       MOSUNNY   25  12  58 S17       30.09F WCI  11
APPLETON       CLOUDY    30  12  47 S15G21    30.05F WCI  19
BENSON         CLOUDY    28  12  50 SW15      30.08F WCI  17
ORTONVILLE       N/A     32  14  47 MISG      30.02F
MADISON        CLOUDY    36  16  44 S16       30.04F
WILLMAR        FAIR      28  16  59 S9        30.11F WCI  20
$$
MNZ033>034-036-042>043-049>051-058-059-222000-
   Central Minnesota

CITY           SKY/WX    TMP DP  RH WIND       PRES   REMARKS
ST CLOUD       CLOUDY    22  13  68 S10       30.14F WCI  11
SAUK CENTRE    MOCLDY    24  13  61 S14       30.10F WCI  12
PAYNESVILLE    CLOUDY    25  14  64 S10G21    30.13F WCI  15
AITKIN         LGT RAIN  19  12  73 S10       30.09F WCI   8
PINE RIVER     LGT SNOW  18  14  86 S7        30.11F WCI   8
BRAINERD       LGT SNOW  20  15  81 S10       30.09F WCI   9
STAPLES        FLURRIES  19  10  68 S12       30.07F WCI   7
LITTLE FALLS   CLOUDY    23   9  54 S9        30.12F WCI  13
LITCHFIELD     MOSUNNY   27  16  63 S5        30.14F WCI  21
BUFFALO        CLOUDY    23  12  63 S9        30.18F WCI  13
MAPLE LAKE     CLOUDY    25  16  68 S6        30.17F WCI  18
HUTCHINSON     CLOUDY    27  14  58 S9G16     30.15F WCI  18
$$
MNZ037-044-045-052-053-222000-
   East Central Minnesota

CITY           SKY/WX    TMP DP  RH WIND       PRES   REMARKS
PRINCETON      CLOUDY    23  12  63 S10       30.16F WCI  12
MORA           CLOUDY    21  14  73 S9        30.18F WCI  11
CAMBRIDGE      LGT SNOW  23  14  68 S8        30.17F WCI  14
RUSH CITY      CLOUDY    21  12  68 S10       30.18F WCI  10
MOOSE LAKE     CLOUDY    23  12  63 SW12      30.13F WCI  12
HINCKLEY       CLOUDY    23  14  68 SW9       30.16F WCI  13
CLOQUET        CLOUDY    21  10  63 SW7       30.11F WCI  13
MCGREGOR       CLOUDY    23  16  74 S12G17    30.11F WCI  12
$$
MNZ071>073-080-081-089-090-097-098-222000-
   Southwest Minnesota

CITY           SKY/WX    TMP DP  RH WIND       PRES   REMARKS
MONTEVIDEO     CLOUDY    30  12  47 SW14G20   30.08F WCI  20
GRANITE FALLS  CLOUDY    32  15  49 S14       30.11F WCI  22
CANBY          CLOUDY    34  13  41 SW20      30.05F WCI  22
MARSHALL       CLOUDY    33  12  41 S18       30.07F WCI  22
REDWOOD FALLS  CLOUDY    30  10  43 S18       30.13F WCI  18
OLIVIA         MOSUNNY   30  16  55 S16       30.12F WCI  19
PIPESTONE      CLOUDY    30  10  43 S18G24    30.06F WCI  18
WINDOM         MOSUNNY   30  12  47 S15G21    30.12F WCI  19
WORTHINGTON    PTSUNNY   32  13  45 S22       30.10F WCI  19
JACKSON        CLOUDY    32  12  43 S20       30.15F WCI  20
SLAYTON        CLOUDY    30   4  33 S17G26    30.12F WCI  18
$$
MNZ065>067-074>077-082>085-091>093-222000-
   South Central Minnesota

CITY           SKY/WX    TMP DP  RH WIND       PRES   REMARKS
MANKATO        CLOUDY    26  15  63 S15       30.18F WCI  14
NEW ULM        CLOUDY    28  10  47 S3G16     30.16F
ST JAMES       CLOUDY    30  12  47 S17       30.17F WCI  18
FAIRMONT       CLOUDY    30  14  51 SW17G23   30.18F WCI  18
GLENCOE        CLOUDY    27  15  61 S10G16    30.16F WCI  17
FARIBAULT      CLOUDY    27  14  59 S9        30.19F WCI  17
OWATONNA       CLOUDY    28  14  54 S13       30.20F WCI  18
WASECA         CLOUDY    28  14  54 S15       30.21F WCI  17
ALBERT LEA     CLOUDY    27  10  50 S9        30.20F WCI  17
$$
MNZ078>079-086>088-094>096-222000-
   Southeast Minnesota

CITY           SKY/WX    TMP DP  RH WIND       PRES   REMARKS
ROCHESTER      CLOUDY    26  15  63 S15       30.20F WCI  14
RED WING       CLOUDY    27  10  50 S7        30.22F WCI  19
STANTON        PTSUNNY   28  15  57 S9        30.19F WCI  19
DODGE CENTER   CLOUDY    27  14  59 S14       30.19F WCI  15
WINONA         CLOUDY    30  14  51 SW6       30.26F WCI  24
AUSTIN         CLOUDY    27  14  59 SW12      30.20F WCI  16
PRESTON        CLOUDY    26  13  59 S12G20    30.22F WCI  15
$$
ABBREVIATIONS USED IN REMARKS
   TC - TEMPERATURES IN CELSIUS
  WCI - WIND CHILL INDEX
   HX - HEAT INDEX
  VSB - VISIBILITY
$$




USA.gov is the U.S. government's official web portal to all federal, state and local government web resources and services.